Location: Bernadets
(43.3537°N, 0.3167°E)
Time: 03:03:55
(UTC+00:00)

SL-08 RB Rocket - Pass Details

Date: 24 October 2021
Orbit: 646 x 683 km, 97.8° (Epoch: 27 November)

Event Time Altitude Azimuth Distance (km) Brightness Sun altitude
Rises 18:11:15 0° 151° (SSE) 2,982 6.8 -13.3°
Reaches altitude 10° 18:13:30 10° 146° (SE) 2,080 6.0 -13.7°
Maximum altitude 18:17:53 49° 72° (ENE) 863 3.9 -14.5°
Drops below altitude 10° 18:22:20 10° 358° (N) 2,117 6.3 -15.4°
Sets 18:24:39 0° 353° (N) 3,041 7.2 -15.8°
